星链-32360 (STARLINK-32360)

导读 | 星芒AI

STARLINK-32360 是 SpaceX Starlink 卫星互联网项目中的一颗低轨卫星,属于第三代星链卫星(v1.5 或 v2 架构)。该卫星由 SpaceX 研发并发射,旨在为全球用户提供高速、低延迟的互联网服务。它运行在约 550 公里的轨道高度,配备先进通信设备和激光链路,以提升网络性能和稳定性。STARLINK-32360 的部署有助于扩展 Starlink 覆盖范围,支持更多用户接入服务,尤其在偏远和网络基础设施薄弱地区。

基本信息
目录编号:
61007
目录名称:
STARLINK-32360
国际标识:
2024-158T
轨道中心:
EARTH
卫星名称:
星链-32360
卫星全名:
星链-32360 (STARLINK-32360)
卫星状态:
在轨 (已飞行471 天)
发射日期:
2024-09-05 UTC
国别 :
美国 (US)
星等 :
--
轨道信息
数据来源 国际轨道数据 AOE轨道数据
星历时间 2025-12-20T05:21:14+0800
11小时前
查看轨道信息
2025-12-16T10:00:00+0800
4天前
查看轨道信息
半长轴 6853.376km 6853.374km
偏心率 0.0001171 0.0001412
轨道倾角 53.159° 53.161°
近地点辐角 88.432° 61.618°
升交点赤经 60.894° 78.573°
平近点角 271.682° 198.507°
近地点 474.436km 474.271km
远地点 476.042km 476.207km
周期 94.106分钟 94.106分钟
每日圈数 15.301922 15.301928
详细信息
固有亮度:
5
最大亮度:
2.5
卫星平台:
Starlink V1.0
覆盖范围:
全球
运营商:
太空探索技术公司
运营商所在国:
美国
制造商(研发单位):
太空探索技术公司
制造商所在国:
美国
使用方式:
暂无
卫星简介
Starlink 计划是 SpaceX 推出的全球卫星互联网项目,通过发射低轨道卫星,为全球尤其是偏远地区提供高速、低延迟的互联网服务。自 2019 年起,Starlink 已部署数千颗卫星,旨在缩小全球数字鸿沟,推动互联网普及。该项目还为军事、航空等行业提供通信支持,带来广泛经济效益。
2D轨道图
3D轨道图
轨道高度分析图
轨道倾角分析图
轨道综合分析图
查看轨道综合分析图